Location: Partizánske
(48.6285°N, 18.3769°E)
Time: 02:52:18
(UTC+02:00)

ISS - Visible Passes

Search period start: 25 September 2022 00:00
Search period end: 05 October 2022 00:00
Orbit: 414 x 417 km, 51.6° (Epoch: 24 September)

Date Brightness Start Highest point End Pass type
(mag) Time Alt. Az. Time Alt. Az. Time Alt. Az.
25 Sep -3.5 20:34:57 10° WNW 20:38:17 57° NNE 20:38:21 57° NNE visible
26 Sep -3.2 19:46:16 10° WNW 19:49:34 50° N 19:51:30 22° ENE visible
26 Sep -1.2 21:23:03 10° WNW 21:24:23 22° WNW 21:24:23 22° WNW visible
27 Sep -3.7 20:34:23 10° WNW 20:37:32 77° WNW 20:37:32 77° WNW visible
28 Sep -3.7 19:45:42 10° WNW 19:49:03 68° NNE 19:50:43 27° E visible
28 Sep -1.0 21:22:35 10° W 21:23:36 17° W 21:23:36 17° W visible
29 Sep -3.4 18:56:59 10° WNW 19:00:19 56° N 19:03:38 10° E visible
29 Sep -3.1 20:33:47 10° WNW 20:36:47 47° SW 20:36:47 47° SW visible
30 Sep -3.7 19:45:01 10° WNW 19:48:23 72° SSW 19:50:01 27° SE visible
30 Sep -0.6 21:22:36 10° W 21:22:54 11° WSW 21:22:54 11° WSW visible
01 Oct -3.8 18:56:18 10° WNW 18:59:39 84° NNE 19:03:01 10° ESE visible
01 Oct -1.9 20:33:22 10° W 20:36:06 23° SW 20:36:11 23° SW visible
02 Oct -2.5 19:44:24 10° W 19:47:30 35° SW 19:49:32 17° SSE visible
03 Oct -3.1 18:55:32 10° WNW 18:58:49 52° SSW 19:02:05 10° SE visible
03 Oct -0.8 20:34:17 10° WSW 20:34:55 10° SW 20:35:33 10° SW visible
04 Oct -1.1 19:44:10 10° W 19:46:22 17° SW 19:48:34 10° S visible
